Location: San Vito
(41.8833°N, 12.9833°E)
Time: 18:05:13
(UTC+00:00)

STARLINK-67 - Pass Details

Date: 17 November 2019
Orbit: 299 x 324 km, 53.0° (Epoch: 11 December)

Event Time Altitude Azimuth Distance (km) Brightness Sun altitude
Exits shadow 03:39:32 - 47° (NE) 1,337 6.1 -26.0°
Enters shadow 04:35:09 -71° 287° (WNW) 12,520 10.5 -15.7°
Maximum altitude 05:13:49 47° 33° (NNE) 433 3.2 -8.8°
